Time,TemperatureF,DewpointF,PressureIn,WindDirection,WindDirectionDegrees,WindSpeedMPH,WindSpeedGustMPH,Humidity,HourlyPrecipIn,Conditions,Clouds,dailyrainin,SoftwareType,DateUTC
2013-02-27 00:01:00,39.0,15.0,30.19,SW,231,3.0,6.0,37,0.00,,,0.00,,2013-02-27 07:01:00,
2013-02-27 00:11:00,39.0,15.0,30.19,SW,231,3.0,6.0,37,0.00,,,0.00,,2013-02-27 07:11:00,
2013-02-27 00:21:00,39.0,15.0,30.19,WSW,253,4.0,5.0,37,0.00,,,0.00,,2013-02-27 07:21:00,
2013-02-27 00:31:00,38.0,16.0,30.19,SSW,211,1.0,3.0,40,0.00,,,0.00,,2013-02-27 07:31:00,
2013-02-27 00:41:00,38.0,16.0,30.19,SSW,211,1.0,3.0,40,0.00,,,0.00,,2013-02-27 07:41:00,
2013-02-27 00:51:00,38.0,15.0,30.19,SW,226,1.0,3.0,39,0.00,,,0.00,,2013-02-27 07:51:00,
2013-02-27 01:01:00,40.0,15.0,30.19,SW,214,2.0,3.0,36,0.00,,,0.00,,2013-02-27 08:01:00,
2013-02-27 01:11:00,40.0,15.0,30.19,SW,214,2.0,3.0,36,0.00,,,0.00,,2013-02-27 08:11:00,
2013-02-27 01:21:00,41.0,15.0,30.19,West,264,0.0,1.0,34,0.00,,,0.00,,2013-02-27 08:21:00,
2013-02-27 01:31:00,40.0,15.0,30.19,WSW,257,0.0,1.0,35,0.00,,,0.00,,2013-02-27 08:31:00,
2013-02-27 01:41:00,40.0,15.0,30.19,WSW,257,0.0,1.0,35,0.00,,,0.00,,2013-02-27 08:41:00,
2013-02-27 01:52:00,38.0,15.0,30.20,WSW,257,0.0,0.0,38,0.00,,,0.00,,2013-02-27 08:52:00,
2013-02-27 02:01:00,38.0,15.0,30.20,SE,130,0.0,1.0,38,0.00,,,0.00,,2013-02-27 09:01:00,
2013-02-27 02:21:00,37.0,16.0,30.20,SSE,167,0.0,1.0,41,0.00,,,0.00,,2013-02-27 09:21:00,
2013-02-27 02:31:00,36.0,16.0,30.20,SSW,212,1.0,2.0,43,0.00,,,0.00,,2013-02-27 09:31:00,
2013-02-27 02:41:00,36.0,16.0,30.20,SSW,212,1.0,2.0,43,0.00,,,0.00,,2013-02-27 09:41:00,
2013-02-27 02:51:00,35.0,16.0,30.20,South,190,0.0,1.0,45,0.00,,,0.00,,2013-02-27 09:51:00,
2013-02-27 03:01:00,35.0,15.0,30.20,South,190,0.0,1.0,44,0.00,,,0.00,,2013-02-27 10:01:00,
2013-02-27 03:12:00,35.0,15.0,30.20,South,190,0.0,1.0,44,0.00,,,0.00,,2013-02-27 10:12:00,
2013-02-27 03:21:00,34.0,16.0,30.20,South,189,1.0,2.0,47,0.00,,,0.00,,2013-02-27 10:21:00,
2013-02-27 03:31:00,33.0,16.0,30.20,SSW,208,1.0,2.0,50,0.00,,,0.00,,2013-02-27 10:31:00,
2013-02-27 03:41:00,33.0,16.0,30.20,SSW,208,1.0,2.0,50,0.00,,,0.00,,2013-02-27 10:41:00,
2013-02-27 03:52:00,35.0,15.0,30.20,SW,222,0.0,3.0,44,0.00,,,0.00,,2013-02-27 10:52:00,
2013-02-27 04:01:00,36.0,15.0,30.21,WSW,244,0.0,1.0,42,0.00,,,0.00,,2013-02-27 11:01:00,
2013-02-27 04:11:00,36.0,15.0,30.21,WSW,244,0.0,1.0,42,0.00,,,0.00,,2013-02-27 11:11:00,
2013-02-27 04:21:00,36.0,15.0,30.21,ENE,60,0.0,2.0,41,0.00,,,0.00,,2013-02-27 11:21:00,
2013-02-27 04:31:00,35.0,13.0,30.21,East,82,0.0,1.0,40,0.00,,,0.00,,2013-02-27 11:31:00,
2013-02-27 04:41:00,35.0,13.0,30.21,East,82,0.0,1.0,40,0.00,,,0.00,,2013-02-27 11:41:00,
2013-02-27 04:52:00,35.0,12.0,30.22,ENE,71,0.0,1.0,38,0.00,,,0.00,,2013-02-27 11:52:00,
2013-02-27 05:01:00,35.0,12.0,30.22,SE,126,0.0,1.0,38,0.00,,,0.00,,2013-02-27 12:01:00,
2013-02-27 05:12:00,35.0,12.0,30.22,SE,126,0.0,1.0,38,0.00,,,0.00,,2013-02-27 12:12:00,
2013-02-27 05:21:00,34.0,9.0,30.22,ESE,113,0.0,1.0,35,0.00,,,0.00,,2013-02-27 12:21:00,
2013-02-27 05:32:00,35.0,8.0,30.23,ESE,106,1.0,5.0,32,0.00,,,0.00,,2013-02-27 12:32:00,
2013-02-27 05:41:00,35.0,8.0,30.23,ESE,106,1.0,5.0,32,0.00,,,0.00,,2013-02-27 12:41:00,
2013-02-27 05:52:00,35.0,8.0,30.23,SW,228,0.0,1.0,32,0.00,,,0.00,,2013-02-27 12:52:00,
2013-02-27 06:01:00,34.0,8.0,30.23,WSW,238,1.0,2.0,33,0.00,,,0.00,,2013-02-27 13:01:00,
2013-02-27 06:21:00,34.0,8.0,30.24,SSE,150,1.0,1.0,33,0.00,,,0.00,,2013-02-27 13:21:00,
2013-02-27 06:31:00,33.0,8.0,30.24,South,180,0.0,1.0,35,0.00,,,0.00,,2013-02-27 13:31:00,
2013-02-27 06:41:00,33.0,8.0,30.24,South,180,0.0,1.0,35,0.00,,,0.00,,2013-02-27 13:41:00,
2013-02-27 06:52:00,31.0,10.0,30.24,SSW,210,1.0,2.0,40,0.00,,,0.00,,2013-02-27 13:52:00,
2013-02-27 07:01:00,31.0,8.0,30.25,SSE,164,3.0,4.0,38,0.00,,,0.00,,2013-02-27 14:01:00,
2013-02-27 07:11:00,31.0,8.0,30.25,SSE,164,3.0,4.0,38,0.00,,,0.00,,2013-02-27 14:11:00,
2013-02-27 07:21:00,31.0,8.0,30.25,SSE,160,2.0,3.0,38,0.00,,,0.00,,2013-02-27 14:21:00,
2013-02-27 07:31:00,33.0,8.0,30.25,SE,128,2.0,3.0,35,0.00,,,0.00,,2013-02-27 14:31:00,
2013-02-27 07:41:00,33.0,8.0,30.25,SE,128,2.0,3.0,35,0.00,,,0.00,,2013-02-27 14:41:00,
2013-02-27 07:52:00,35.0,9.0,30.26,ESE,121,2.0,4.0,33,0.00,,,0.00,,2013-02-27 14:52:00,
2013-02-27 08:01:00,37.0,9.0,30.27,ESE,122,1.0,2.0,31,0.00,,,0.00,,2013-02-27 15:01:00,
2013-02-27 08:11:00,37.0,9.0,30.27,ESE,122,1.0,2.0,31,0.00,,,0.00,,2013-02-27 15:11:00,
2013-02-27 08:21:00,39.0,9.0,30.27,East,87,1.0,3.0,28,0.00,,,0.00,,2013-02-27 15:21:00,
2013-02-27 08:31:00,40.0,8.0,30.28,ESE,114,1.0,3.0,26,0.00,,,0.00,,2013-02-27 15:31:00,
2013-02-27 08:41:00,40.0,8.0,30.28,ESE,114,1.0,3.0,26,0.00,,,0.00,,2013-02-27 15:41:00,
2013-02-27 08:52:00,41.0,7.0,30.29,ESE,117,1.0,2.0,24,0.00,,,0.00,,2013-02-27 15:52:00,
2013-02-27 09:01:00,41.0,6.0,30.29,ESE,114,0.0,2.0,23,0.00,,,0.00,,2013-02-27 16:01:00,
2013-02-27 09:11:00,41.0,6.0,30.29,ESE,114,0.0,2.0,23,0.00,,,0.00,,2013-02-27 16:11:00,
2013-02-27 09:21:00,42.0,7.0,30.29,NE,47,0.0,1.0,23,0.00,,,0.00,,2013-02-27 16:21:00,
2013-02-27 09:31:00,43.0,7.0,30.29,ENE,75,0.0,2.0,22,0.00,,,0.00,,2013-02-27 16:31:00,
2013-02-27 09:41:00,43.0,7.0,30.29,ENE,75,0.0,2.0,22,0.00,,,0.00,,2013-02-27 16:41:00,
2013-02-27 09:52:00,43.0,6.0,30.29,NW,314,2.0,4.0,21,0.00,,,0.00,,2013-02-27 16:52:00,
2013-02-27 10:01:00,43.0,6.0,30.29,NE,36,1.0,5.0,21,0.00,,,0.00,,2013-02-27 17:01:00,
2013-02-27 10:11:00,43.0,6.0,30.29,NE,36,1.0,5.0,21,0.00,,,0.00,,2013-02-27 17:11:00,
2013-02-27 10:21:00,44.0,4.0,30.29,NE,37,4.0,7.0,19,0.00,,,0.00,,2013-02-27 17:21:00,
2013-02-27 10:32:00,45.0,6.0,30.29,West,277,4.0,7.0,20,0.00,,,0.00,,2013-02-27 17:32:00,
2013-02-27 10:41:00,45.0,6.0,30.29,West,277,4.0,7.0,20,0.00,,,0.00,,2013-02-27 17:41:00,
2013-02-27 10:52:00,46.0,7.0,30.29,NNE,29,3.0,9.0,20,0.00,,,0.00,,2013-02-27 17:52:00,
2013-02-27 11:01:00,46.0,6.0,30.29,North,354,6.0,8.0,19,0.00,,,0.00,,2013-02-27 18:01:00,
2013-02-27 11:11:00,46.0,6.0,30.29,North,354,6.0,8.0,19,0.00,,,0.00,,2013-02-27 18:11:00,
2013-02-27 11:21:00,47.0,7.0,30.29,WNW,301,5.0,9.0,19,0.00,,,0.00,,2013-02-27 18:21:00,
2013-02-27 11:31:00,48.0,7.0,30.29,East,87,6.0,6.0,18,0.00,,,0.00,,2013-02-27 18:31:00,
2013-02-27 11:41:00,48.0,7.0,30.29,East,87,6.0,6.0,18,0.00,,,0.00,,2013-02-27 18:41:00,
2013-02-27 11:52:00,49.0,7.0,30.29,NNE,21,3.0,6.0,18,0.00,,,0.00,,2013-02-27 18:52:00,
2013-02-27 12:01:00,49.0,6.0,30.29,ESE,103,4.0,9.0,17,0.00,,,0.00,,2013-02-27 19:01:00,
2013-02-27 12:11:00,49.0,6.0,30.29,ESE,103,4.0,9.0,17,0.00,,,0.00,,2013-02-27 19:11:00,
2013-02-27 12:21:00,51.0,8.0,30.27,ENE,61,5.0,8.0,17,0.00,,,0.00,,2013-02-27 19:21:00,
2013-02-27 12:32:00,51.0,8.0,30.27,NW,321,3.0,8.0,17,0.00,,,0.00,,2013-02-27 19:32:00,
2013-02-27 12:41:00,51.0,8.0,30.27,NW,321,3.0,8.0,17,0.00,,,0.00,,2013-02-27 19:41:00,
2013-02-27 12:52:00,52.0,7.0,30.26,ENE,65,1.0,7.0,16,0.00,,,0.00,,2013-02-27 19:52:00,
2013-02-27 13:01:00,52.0,7.0,30.26,WNW,284,2.0,8.0,16,0.00,,,0.00,,2013-02-27 20:01:00,
2013-02-27 13:11:00,52.0,7.0,30.26,WNW,284,2.0,8.0,16,0.00,,,0.00,,2013-02-27 20:11:00,
2013-02-27 13:21:00,52.0,4.0,30.26,ESE,104,3.0,6.0,14,0.00,,,0.00,,2013-02-27 20:21:00,
2013-02-27 13:31:00,53.0,5.0,30.25,NNE,25,3.0,8.0,14,0.00,,,0.00,,2013-02-27 20:31:00,
2013-02-27 13:41:00,53.0,5.0,30.25,NNE,25,3.0,8.0,14,0.00,,,0.00,,2013-02-27 20:41:00,
2013-02-27 13:52:00,53.0,4.0,30.24,NE,44,6.0,9.0,13,0.00,,,0.00,,2013-02-27 20:52:00,
2013-02-27 14:01:00,54.0,4.0,30.24,NNW,344,5.0,7.0,13,0.00,,,0.00,,2013-02-27 21:01:00,
2013-02-27 14:11:00,54.0,4.0,30.24,NNW,344,5.0,7.0,13,0.00,,,0.00,,2013-02-27 21:11:00,
2013-02-27 14:21:00,55.0,3.0,30.23,NNE,21,4.0,9.0,12,0.00,,,0.00,,2013-02-27 21:21:00,
2013-02-27 14:31:00,54.0,4.0,30.23,NE,40,2.0,11.0,13,0.00,,,0.00,,2013-02-27 21:31:00,
2013-02-27 14:41:00,54.0,4.0,30.23,NE,40,2.0,11.0,13,0.00,,,0.00,,2013-02-27 21:41:00,
2013-02-27 14:52:00,55.0,3.0,30.22,NW,314,5.0,9.0,12,0.00,,,0.00,,2013-02-27 21:52:00,
2013-02-27 15:01:00,55.0,3.0,30.21,NNW,345,4.0,11.0,12,0.00,,,0.00,,2013-02-27 22:01:00,
2013-02-27 15:11:00,55.0,3.0,30.21,NNW,345,4.0,11.0,12,0.00,,,0.00,,2013-02-27 22:11:00,
2013-02-27 15:21:00,55.0,3.0,30.21,NNE,27,5.0,8.0,12,0.00,,,0.00,,2013-02-27 22:21:00,
2013-02-27 15:31:00,55.0,3.0,30.21,NNE,15,4.0,7.0,12,0.00,,,0.00,,2013-02-27 22:31:00,
2013-02-27 15:41:00,55.0,3.0,30.21,NNE,15,4.0,7.0,12,0.00,,,0.00,,2013-02-27 22:41:00,
2013-02-27 15:52:00,56.0,4.0,30.21,NW,318,2.0,8.0,12,0.00,,,0.00,,2013-02-27 22:52:00,
2013-02-27 16:01:00,56.0,4.0,30.21,NW,310,4.0,8.0,12,0.00,,,0.00,,2013-02-27 23:01:00,
2013-02-27 16:11:00,56.0,4.0,30.21,NW,310,4.0,8.0,12,0.00,,,0.00,,2013-02-27 23:11:00,
2013-02-27 16:21:00,55.0,5.0,30.20,WNW,283,5.0,9.0,13,0.00,,,0.00,,2013-02-27 23:21:00,
2013-02-27 16:31:00,55.0,5.0,30.21,WNW,298,5.0,8.0,13,0.00,,,0.00,,2013-02-27 23:31:00,
2013-02-27 16:42:00,55.0,5.0,30.21,WNW,298,5.0,8.0,13,0.00,,,0.00,,2013-02-27 23:42:00,
2013-02-27 16:52:00,55.0,5.0,30.20,NNW,330,3.0,8.0,13,0.00,,,0.00,,2013-02-27 23:52:00,
2013-02-27 17:01:00,55.0,5.0,30.20,NNW,330,3.0,4.0,13,0.00,,,0.00,,2013-02-28 00:01:00,
2013-02-27 17:11:00,55.0,5.0,30.20,NNW,330,3.0,4.0,13,0.00,,,0.00,,2013-02-28 00:11:00,
2013-02-27 17:21:00,55.0,5.0,30.20,NW,304,1.0,5.0,13,0.00,,,0.00,,2013-02-28 00:21:00,
2013-02-27 17:31:00,55.0,5.0,30.20,NW,304,1.0,5.0,13,0.00,,,0.00,,2013-02-28 00:31:00,
2013-02-27 17:42:00,55.0,5.0,30.20,NW,304,1.0,5.0,13,0.00,,,0.00,,2013-02-28 00:42:00,
2013-02-27 17:52:00,55.0,5.0,30.20,NW,304,1.0,5.0,13,0.00,,,0.00,,2013-02-28 00:52:00,
2013-02-27 18:01:00,54.0,7.0,30.20,West,266,7.0,10.0,15,0.00,,,0.00,,2013-02-28 01:01:00,
2013-02-27 18:11:00,54.0,7.0,30.20,West,266,7.0,10.0,15,0.00,,,0.00,,2013-02-28 01:11:00,
2013-02-27 18:21:00,52.0,9.0,30.21,WSW,246,4.0,10.0,17,0.00,,,0.00,,2013-02-28 01:21:00,
2013-02-27 18:31:00,51.0,9.0,30.21,WSW,242,4.0,8.0,18,0.00,,,0.00,,2013-02-28 01:31:00,
2013-02-27 18:41:00,51.0,9.0,30.21,WSW,242,4.0,8.0,18,0.00,,,0.00,,2013-02-28 01:41:00,
2013-02-27 18:52:00,49.0,10.0,30.22,SW,229,6.0,9.0,20,0.00,,,0.00,,2013-02-28 01:52:00,
2013-02-27 19:01:00,49.0,11.0,30.22,WSW,242,6.0,8.0,21,0.00,,,0.00,,2013-02-28 02:01:00,
2013-02-27 19:11:00,49.0,11.0,30.22,WSW,242,6.0,8.0,21,0.00,,,0.00,,2013-02-28 02:11:00,
2013-02-27 19:21:00,47.0,9.0,30.23,SSW,193,6.0,10.0,21,0.00,,,0.00,,2013-02-28 02:21:00,
2013-02-27 19:31:00,47.0,9.0,30.23,WSW,250,7.0,10.0,21,0.00,,,0.00,,2013-02-28 02:31:00,
2013-02-27 19:41:00,47.0,9.0,30.23,WSW,250,7.0,10.0,21,0.00,,,0.00,,2013-02-28 02:41:00,
2013-02-27 19:52:00,47.0,9.0,30.23,WSW,250,7.0,10.0,21,0.00,,,0.00,,2013-02-28 02:52:00,
2013-02-27 20:01:00,46.0,7.0,30.25,SW,228,9.0,11.0,20,0.00,,,0.00,,2013-02-28 03:01:00,
2013-02-27 20:11:00,46.0,7.0,30.25,SW,228,9.0,11.0,20,0.00,,,0.00,,2013-02-28 03:11:00,
2013-02-27 20:21:00,44.0,7.0,30.24,WSW,238,4.0,10.0,21,0.00,,,0.00,,2013-02-28 03:21:00,
2013-02-27 20:31:00,44.0,8.0,30.24,SSW,204,5.0,9.0,22,0.00,,,0.00,,2013-02-28 03:31:00,
2013-02-27 20:41:00,44.0,8.0,30.24,SSW,204,5.0,9.0,22,0.00,,,0.00,,2013-02-28 03:41:00,
2013-02-27 20:52:00,44.0,8.0,30.26,South,184,6.0,10.0,22,0.00,,,0.00,,2013-02-28 03:52:00,
2013-02-27 21:01:00,44.0,8.0,30.26,WSW,240,7.0,10.0,22,0.00,,,0.00,,2013-02-28 04:01:00,
2013-02-27 21:11:00,44.0,8.0,30.26,WSW,240,7.0,10.0,22,0.00,,,0.00,,2013-02-28 04:11:00,
2013-02-27 21:21:00,43.0,8.0,30.27,SW,229,6.0,8.0,23,0.00,,,0.00,,2013-02-28 04:21:00,
2013-02-27 21:31:00,43.0,9.0,30.27,SSW,212,9.0,11.0,24,0.00,,,0.00,,2013-02-28 04:31:00,
2013-02-27 21:41:00,43.0,9.0,30.27,SSW,212,9.0,11.0,24,0.00,,,0.00,,2013-02-28 04:41:00,
2013-02-27 21:52:00,43.0,8.0,30.28,WSW,248,8.0,11.0,23,0.00,,,0.00,,2013-02-28 04:52:00,
2013-02-27 22:01:00,42.0,9.0,30.28,SSW,212,6.0,12.0,25,0.00,,,0.00,,2013-02-28 05:01:00,
2013-02-27 22:11:00,42.0,9.0,30.28,SSW,212,6.0,12.0,25,0.00,,,0.00,,2013-02-28 05:11:00,
2013-02-27 22:22:00,42.0,9.0,30.29,SW,214,8.0,10.0,25,0.00,,,0.00,,2013-02-28 05:22:00,
2013-02-27 22:31:00,42.0,10.0,30.29,SW,229,7.0,9.0,26,0.00,,,0.00,,2013-02-28 05:31:00,
2013-02-27 22:42:00,42.0,10.0,30.29,SW,229,7.0,9.0,26,0.00,,,0.00,,2013-02-28 05:42:00,
2013-02-27 22:52:00,41.0,9.0,30.29,SW,229,4.0,8.0,26,0.00,,,0.00,,2013-02-28 05:52:00,
2013-02-27 23:01:00,41.0,9.0,30.29,WSW,243,3.0,7.0,26,0.00,,,0.00,,2013-02-28 06:01:00,
2013-02-27 23:11:00,41.0,9.0,30.29,WSW,243,3.0,7.0,26,0.00,,,0.00,,2013-02-28 06:11:00,
2013-02-27 23:21:00,41.0,8.0,30.29,SW,232,3.0,4.0,25,0.00,,,0.00,,2013-02-28 06:21:00,
2013-02-27 23:32:00,41.0,8.0,30.29,SW,224,2.0,6.0,25,0.00,,,0.00,,2013-02-28 06:32:00,
2013-02-27 23:41:00,41.0,8.0,30.29,SW,224,2.0,6.0,25,0.00,,,0.00,,2013-02-28 06:41:00,
2013-02-27 23:52:00,41.0,9.0,30.30,SW,227,2.0,3.0,26,0.00,,,0.00,,2013-02-28 06:52:00,